Year,Month,Day,Hour,Minute,Value (Times are PST for temperature in C)
2009,05,30,00,00,12.10
2009,05,30,00,01,12.20
2009,05,30,00,02,12.30
2009,05,30,00,03,12.30
2009,05,30,00,04,12.40
2009,05,30,00,05,12.50
2009,05,30,00,06,12.60
2009,05,30,00,07,12.70
2009,05,30,00,08,12.80
2009,05,30,00,09,12.80
2009,05,30,00,10,12.80
2009,05,30,00,11,12.90
2009,05,30,00,12,12.90
2009,05,30,00,13,12.90
2009,05,30,00,14,12.90
2009,05,30,00,15,12.90
2009,05,30,00,16,12.80
2009,05,30,00,17,12.80
2009,05,30,00,18,12.80
2009,05,30,00,19,12.80
2009,05,30,00,20,12.80
2009,05,30,00,21,12.80
2009,05,30,00,22,12.80
2009,05,30,00,23,12.70
2009,05,30,00,24,12.70
2009,05,30,00,25,12.60
2009,05,30,00,26,12.50
2009,05,30,00,27,12.40
2009,05,30,00,28,12.30
2009,05,30,00,29,12.30
2009,05,30,00,30,12.30
2009,05,30,00,31,12.30
2009,05,30,00,32,12.30
2009,05,30,00,33,12.30
2009,05,30,00,34,12.30
2009,05,30,00,35,12.30
2009,05,30,00,36,12.20
2009,05,30,00,37,12.10
2009,05,30,00,38,12.10
2009,05,30,00,39,12.00
2009,05,30,00,40,12.00
2009,05,30,00,41,11.90
2009,05,30,00,42,11.90
2009,05,30,00,43,11.80
2009,05,30,00,44,11.80
2009,05,30,00,45,11.80
2009,05,30,00,46,11.80
2009,05,30,00,47,11.80
2009,05,30,00,48,11.80
2009,05,30,00,49,11.80
2009,05,30,00,50,11.80
2009,05,30,00,51,11.80
2009,05,30,00,52,11.80
2009,05,30,00,53,11.80
2009,05,30,00,54,11.90
2009,05,30,00,55,11.90
2009,05,30,00,56,11.90
2009,05,30,00,57,11.90
2009,05,30,00,58,11.80
2009,05,30,00,59,11.80
2009,05,30,01,00,11.80
2009,05,30,01,01,11.80
2009,05,30,01,02,11.80
2009,05,30,01,03,11.80
2009,05,30,01,04,11.80
2009,05,30,01,05,11.80
2009,05,30,01,06,11.80
2009,05,30,01,07,11.80
2009,05,30,01,08,11.80
2009,05,30,01,09,11.80
2009,05,30,01,10,11.80
2009,05,30,01,11,11.80
2009,05,30,01,12,11.80
2009,05,30,01,13,11.70
2009,05,30,01,14,11.70
2009,05,30,01,15,11.60
2009,05,30,01,16,11.60
2009,05,30,01,17,11.50
2009,05,30,01,18,11.40
2009,05,30,01,19,11.40
2009,05,30,01,20,11.40
2009,05,30,01,21,11.40
2009,05,30,01,22,11.30
2009,05,30,01,23,11.30
2009,05,30,01,24,11.30
2009,05,30,01,25,11.30
2009,05,30,01,26,11.30
2009,05,30,01,27,11.20
2009,05,30,01,28,11.20
2009,05,30,01,29,11.20
2009,05,30,01,30,11.20
2009,05,30,01,31,11.20
2009,05,30,01,32,11.10
2009,05,30,01,33,11.10
2009,05,30,01,34,11.10
2009,05,30,01,35,11.10
2009,05,30,01,36,11.10
2009,05,30,01,37,11.20
2009,05,30,01,38,11.20
2009,05,30,01,39,11.30
2009,05,30,01,40,11.30
2009,05,30,01,41,11.40
2009,05,30,01,42,11.40
2009,05,30,01,43,11.50
2009,05,30,01,44,11.60
2009,05,30,01,45,11.70
2009,05,30,01,46,11.80
2009,05,30,01,47,11.80
2009,05,30,01,48,11.80
2009,05,30,01,49,11.80
2009,05,30,01,50,11.80
2009,05,30,01,51,11.80
2009,05,30,01,52,11.80
2009,05,30,01,53,11.80
2009,05,30,01,54,11.80
2009,05,30,01,55,11.80
2009,05,30,01,56,11.80
2009,05,30,01,57,11.80
2009,05,30,01,58,11.80
2009,05,30,01,59,11.80
2009,05,30,02,00,11.70
2009,05,30,02,01,11.70
2009,05,30,02,02,11.70
2009,05,30,02,03,11.80
2009,05,30,02,04,11.80
2009,05,30,02,05,11.80
2009,05,30,02,06,11.80
2009,05,30,02,07,11.80
2009,05,30,02,08,11.80
2009,05,30,02,09,11.80
2009,05,30,02,10,11.80
2009,05,30,02,11,11.80
2009,05,30,02,12,11.80
2009,05,30,02,13,11.70
2009,05,30,02,14,11.70
2009,05,30,02,15,11.70
2009,05,30,02,16,11.70
2009,05,30,02,17,11.80
2009,05,30,02,18,11.80
2009,05,30,02,19,11.70
2009,05,30,02,20,11.70
2009,05,30,02,21,11.70
2009,05,30,02,22,11.70
2009,05,30,02,23,11.70
2009,05,30,02,24,11.70
2009,05,30,02,25,11.70
2009,05,30,02,26,11.60
2009,05,30,02,27,11.60
2009,05,30,02,28,11.60
2009,05,30,02,29,11.60
2009,05,30,02,30,11.60
2009,05,30,02,31,11.60
2009,05,30,02,32,11.60
2009,05,30,02,33,11.60
2009,05,30,02,34,11.60
2009,05,30,02,35,11.70
2009,05,30,02,36,11.70
2009,05,30,02,37,11.70
2009,05,30,02,38,11.70
2009,05,30,02,39,11.70
2009,05,30,02,40,11.70
2009,05,30,02,41,11.70
2009,05,30,02,42,11.70
2009,05,30,02,43,11.70
2009,05,30,02,44,11.70
2009,05,30,02,45,11.60
2009,05,30,02,46,11.60
2009,05,30,02,47,11.60
2009,05,30,02,48,11.60
2009,05,30,02,49,11.60
2009,05,30,02,50,11.50
2009,05,30,02,51,11.40
2009,05,30,02,52,11.40
2009,05,30,02,53,11.40
2009,05,30,02,54,11.40
2009,05,30,02,55,11.30
2009,05,30,02,56,11.30
2009,05,30,02,57,11.30
2009,05,30,02,58,11.20
2009,05,30,02,59,11.20
2009,05,30,03,00,11.10
2009,05,30,03,01,11.10
2009,05,30,03,02,11.10
2009,05,30,03,03,11.10
2009,05,30,03,04,11.00
2009,05,30,03,05,10.90
2009,05,30,03,06,10.90
2009,05,30,03,07,10.90
2009,05,30,03,08,10.90
2009,05,30,03,09,10.90
2009,05,30,03,10,10.90
2009,05,30,03,11,10.90
2009,05,30,03,12,10.90
2009,05,30,03,13,10.90
2009,05,30,03,14,10.90
2009,05,30,03,15,10.90
2009,05,30,03,16,10.90
2009,05,30,03,17,10.90
2009,05,30,03,18,10.90
2009,05,30,03,19,10.90
2009,05,30,03,20,10.90
2009,05,30,03,21,10.90
2009,05,30,03,22,10.80
2009,05,30,03,23,10.80
2009,05,30,03,24,10.80
2009,05,30,03,25,10.80
2009,05,30,03,26,10.70
2009,05,30,03,27,10.70
2009,05,30,03,28,10.70
2009,05,30,03,29,10.70
2009,05,30,03,30,10.70
2009,05,30,03,31,10.60
2009,05,30,03,32,10.60
2009,05,30,03,33,10.60
2009,05,30,03,34,10.60
2009,05,30,03,35,10.60
2009,05,30,03,36,10.60
2009,05,30,03,37,10.60
2009,05,30,03,38,10.60
2009,05,30,03,39,10.50
2009,05,30,03,40,10.40
2009,05,30,03,41,10.40
2009,05,30,03,42,10.40
2009,05,30,03,43,10.40
2009,05,30,03,44,10.40
2009,05,30,03,45,10.40
2009,05,30,03,46,10.40
2009,05,30,03,47,10.40
2009,05,30,03,48,10.40
2009,05,30,03,49,10.40
2009,05,30,03,50,10.30
2009,05,30,03,51,10.30
2009,05,30,03,52,10.30
2009,05,30,03,53,10.30
2009,05,30,03,54,10.30
2009,05,30,03,55,10.30
2009,05,30,03,56,10.40
2009,05,30,03,57,10.40
2009,05,30,03,58,10.40
2009,05,30,03,59,10.40
2009,05,30,04,00,10.40
2009,05,30,04,01,10.40
2009,05,30,04,02,10.40
2009,05,30,04,03,10.40
2009,05,30,04,04,10.40
2009,05,30,04,05,10.40
2009,05,30,04,06,10.40
2009,05,30,04,07,10.40
2009,05,30,04,08,10.30
2009,05,30,04,09,10.30
2009,05,30,04,10,10.30
2009,05,30,04,11,10.20
2009,05,30,04,12,10.20
2009,05,30,04,13,10.10
2009,05,30,04,14,10.10
2009,05,30,04,15,10.10
2009,05,30,04,16,10.10
2009,05,30,04,17,10.10
2009,05,30,04,18,10.10
2009,05,30,04,19,10.10
2009,05,30,04,20,10.10
2009,05,30,04,21,10.10
2009,05,30,04,22,10.10
2009,05,30,04,23,10.10
2009,05,30,04,24,10.10
2009,05,30,04,25,10.10
2009,05,30,04,26,10.10
2009,05,30,04,27,10.10
2009,05,30,04,28,10.10
2009,05,30,04,29,10.10
2009,05,30,04,30,10.10
2009,05,30,04,31,10.10
2009,05,30,04,32,10.10
2009,05,30,04,33,10.10
2009,05,30,04,34,10.10
2009,05,30,04,35,9.90
2009,05,30,04,36,9.90
2009,05,30,04,37,9.90
2009,05,30,04,38,9.80
2009,05,30,04,39,9.80
2009,05,30,04,40,9.70
2009,05,30,04,41,9.70
2009,05,30,04,42,9.70
2009,05,30,04,43,9.60
2009,05,30,04,44,9.60
2009,05,30,04,45,9.60
2009,05,30,04,46,9.50
2009,05,30,04,47,9.50
2009,05,30,04,48,9.40
2009,05,30,04,49,9.40
2009,05,30,04,50,9.40
2009,05,30,04,51,9.40
2009,05,30,04,52,9.40
2009,05,30,04,53,9.40
2009,05,30,04,54,9.40
2009,05,30,04,55,9.50
2009,05,30,04,56,9.50
2009,05,30,04,57,9.50
2009,05,30,04,58,9.60
2009,05,30,04,59,9.60
2009,05,30,05,00,9.70
2009,05,30,05,01,9.70
2009,05,30,05,02,9.70
2009,05,30,05,03,9.70
2009,05,30,05,04,9.80
2009,05,30,05,05,9.80
2009,05,30,05,06,9.80
2009,05,30,05,07,9.80
2009,05,30,05,08,9.90
2009,05,30,05,09,9.80
2009,05,30,05,10,9.80
2009,05,30,05,11,9.80
2009,05,30,05,12,9.80
2009,05,30,05,13,9.80
2009,05,30,05,14,9.80
2009,05,30,05,15,9.90
2009,05,30,05,16,9.90
2009,05,30,05,17,9.90
2009,05,30,05,18,9.90
2009,05,30,05,19,9.90
2009,05,30,05,20,9.90
2009,05,30,05,21,9.90
2009,05,30,05,22,9.90
2009,05,30,05,23,9.90
2009,05,30,05,24,9.80
2009,05,30,05,25,9.80
2009,05,30,05,26,9.80
2009,05,30,05,27,9.70
2009,05,30,05,28,9.70
2009,05,30,05,29,9.70
2009,05,30,05,30,9.70
2009,05,30,05,31,9.70
2009,05,30,05,32,9.70
2009,05,30,05,33,9.60
2009,05,30,05,34,9.60
2009,05,30,05,35,9.60
2009,05,30,05,36,9.60
2009,05,30,05,37,9.60
2009,05,30,05,38,9.60
2009,05,30,05,39,9.60
2009,05,30,05,40,9.60
2009,05,30,05,41,9.60
2009,05,30,05,42,9.70
2009,05,30,05,43,9.70
2009,05,30,05,44,9.70
2009,05,30,05,45,9.70
2009,05,30,05,46,9.70
2009,05,30,05,47,9.70
2009,05,30,05,48,9.70
2009,05,30,05,49,9.70
2009,05,30,05,50,9.70
2009,05,30,05,51,9.70
2009,05,30,05,52,9.70
2009,05,30,05,53,9.70
2009,05,30,05,54,9.70
2009,05,30,05,55,9.70
2009,05,30,05,56,9.70
2009,05,30,05,57,9.70
2009,05,30,05,58,9.70
2009,05,30,05,59,9.70
2009,05,30,06,00,9.70
2009,05,30,06,01,9.70
2009,05,30,06,02,9.70
2009,05,30,06,03,9.70
2009,05,30,06,04,9.80
2009,05,30,06,05,9.80
2009,05,30,06,06,9.90
2009,05,30,06,07,9.90
2009,05,30,06,08,9.90
2009,05,30,06,09,10.00
2009,05,30,06,10,10.10
2009,05,30,06,11,10.10
2009,05,30,06,12,10.20
2009,05,30,06,13,10.20
2009,05,30,06,14,10.30
2009,05,30,06,15,10.40
2009,05,30,06,16,10.40
2009,05,30,06,17,10.40
2009,05,30,06,18,10.50
2009,05,30,06,19,10.60
2009,05,30,06,20,10.60
2009,05,30,06,21,10.60
2009,05,30,06,22,10.60
2009,05,30,06,23,10.60
2009,05,30,06,24,10.70
2009,05,30,06,25,10.70
2009,05,30,06,26,10.70
2009,05,30,06,27,10.80
2009,05,30,06,28,10.80
2009,05,30,06,29,10.90
2009,05,30,06,30,11.00
2009,05,30,06,31,11.10
2009,05,30,06,32,11.10
2009,05,30,06,33,11.20
2009,05,30,06,34,11.20
2009,05,30,06,35,11.30
2009,05,30,06,36,11.40
2009,05,30,06,37,11.40
2009,05,30,06,38,11.60
2009,05,30,06,39,11.60
2009,05,30,06,40,11.60
2009,05,30,06,41,11.70
2009,05,30,06,42,11.70
2009,05,30,06,43,11.70
2009,05,30,06,44,11.80
2009,05,30,06,45,11.80
2009,05,30,06,46,11.80
2009,05,30,06,47,11.80
2009,05,30,06,48,11.80
2009,05,30,06,49,11.80
2009,05,30,06,50,11.90
2009,05,30,06,51,11.90
2009,05,30,06,52,11.90
2009,05,30,06,53,11.90
2009,05,30,06,54,11.90
2009,05,30,06,55,11.90
2009,05,30,06,56,12.00
2009,05,30,06,57,12.10
2009,05,30,06,58,12.20
2009,05,30,06,59,12.30
2009,05,30,07,00,12.40
2009,05,30,07,01,12.50
2009,05,30,07,02,12.50
2009,05,30,07,03,12.60
2009,05,30,07,04,12.60
2009,05,30,07,05,12.60
2009,05,30,07,06,12.70
2009,05,30,07,07,12.70
2009,05,30,07,08,12.60
2009,05,30,07,09,12.60
2009,05,30,07,10,12.60
2009,05,30,07,11,12.60
2009,05,30,07,12,12.60
2009,05,30,07,13,12.70
2009,05,30,07,14,12.70
2009,05,30,07,15,12.70
2009,05,30,07,16,12.80
2009,05,30,07,17,12.80
2009,05,30,07,18,12.80
2009,05,30,07,19,12.80
2009,05,30,07,20,12.80
2009,05,30,07,21,12.80
2009,05,30,07,22,12.80
2009,05,30,07,23,12.90
2009,05,30,07,24,12.90
2009,05,30,07,25,13.00
2009,05,30,07,26,13.00
2009,05,30,07,27,13.00
2009,05,30,07,28,13.10
2009,05,30,07,29,13.10
2009,05,30,07,30,13.20
2009,05,30,07,31,13.20
2009,05,30,07,32,13.20
2009,05,30,07,33,13.20
2009,05,30,07,34,13.20
2009,05,30,07,35,13.20
2009,05,30,07,36,13.20
2009,05,30,07,37,13.30
2009,05,30,07,38,13.30
2009,05,30,07,39,13.40
2009,05,30,07,40,13.50
2009,05,30,07,41,13.60
2009,05,30,07,42,13.60
2009,05,30,07,43,13.70
2009,05,30,07,44,13.70
2009,05,30,07,45,13.70
2009,05,30,07,46,13.80
2009,05,30,07,47,13.80
2009,05,30,07,48,13.80
2009,05,30,07,49,13.80
2009,05,30,07,50,13.90
2009,05,30,07,51,13.90
2009,05,30,07,52,14.00
2009,05,30,07,53,14.10
2009,05,30,07,54,14.20
2009,05,30,07,55,14.20
2009,05,30,07,56,14.20
2009,05,30,07,57,14.30
2009,05,30,07,58,14.40
2009,05,30,07,59,14.40
2009,05,30,08,00,14.50
2009,05,30,08,01,14.60
2009,05,30,08,02,14.70
2009,05,30,08,03,14.80
2009,05,30,08,04,14.80
2009,05,30,08,05,14.80
2009,05,30,08,06,14.80
2009,05,30,08,07,14.80
2009,05,30,08,08,14.80
2009,05,30,08,09,14.80
2009,05,30,08,10,14.80
2009,05,30,08,11,14.80
2009,05,30,08,12,14.80
2009,05,30,08,13,14.80
2009,05,30,08,14,15.00
2009,05,30,08,15,15.00
2009,05,30,08,16,15.10
2009,05,30,08,17,15.10
2009,05,30,08,18,15.20
2009,05,30,08,19,15.20
2009,05,30,08,20,15.30
2009,05,30,08,21,15.40
2009,05,30,08,22,15.50
2009,05,30,08,23,15.50
2009,05,30,08,24,15.60
2009,05,30,08,25,15.60
2009,05,30,08,26,15.50
2009,05,30,08,27,15.50
2009,05,30,08,28,15.60
2009,05,30,08,29,15.60
2009,05,30,08,30,15.60
2009,05,30,08,31,15.60
2009,05,30,08,32,15.60
2009,05,30,08,33,15.50
2009,05,30,08,34,15.50
2009,05,30,08,35,15.50
2009,05,30,08,36,15.40
2009,05,30,08,37,15.20
2009,05,30,08,38,14.80
2009,05,30,08,39,14.40
2009,05,30,08,40,14.00
2009,05,30,08,41,13.70
2009,05,30,08,42,13.50
2009,05,30,08,43,13.40
2009,05,30,08,44,13.40
2009,05,30,08,45,13.30
2009,05,30,08,46,13.30
2009,05,30,08,47,13.10
2009,05,30,08,48,13.00
2009,05,30,08,49,12.80
2009,05,30,08,50,12.70
2009,05,30,08,51,12.60
2009,05,30,08,52,12.50
2009,05,30,08,53,12.50
2009,05,30,08,54,12.50
2009,05,30,08,55,12.50
2009,05,30,08,56,12.50
2009,05,30,08,57,12.50
2009,05,30,08,58,12.50
2009,05,30,08,59,12.50
2009,05,30,09,00,12.40
2009,05,30,09,01,12.40
2009,05,30,09,02,12.40
2009,05,30,09,03,12.40
2009,05,30,09,04,12.40
2009,05,30,09,05,12.40
2009,05,30,09,06,12.40
2009,05,30,09,07,12.50
2009,05,30,09,08,12.50
2009,05,30,09,09,12.40
2009,05,30,09,10,12.50
2009,05,30,09,11,12.60
2009,05,30,09,12,12.60
2009,05,30,09,13,12.70
2009,05,30,09,14,12.80
2009,05,30,09,15,12.80
2009,05,30,09,16,12.80
2009,05,30,09,17,12.70
2009,05,30,09,18,12.60
2009,05,30,09,19,12.60
2009,05,30,09,20,12.50
2009,05,30,09,21,12.50
2009,05,30,09,22,12.50
2009,05,30,09,23,12.50
2009,05,30,09,24,12.50
2009,05,30,09,25,12.50
2009,05,30,09,26,12.40
2009,05,30,09,27,12.50
2009,05,30,09,28,12.50
2009,05,30,09,29,12.60
2009,05,30,09,30,12.60
2009,05,30,09,31,12.70
2009,05,30,09,32,12.80
2009,05,30,09,33,12.80
2009,05,30,09,34,12.80
2009,05,30,09,35,12.70
2009,05,30,09,36,12.60
2009,05,30,09,37,12.60
2009,05,30,09,38,12.50
2009,05,30,09,39,12.50
2009,05,30,09,40,12.40
2009,05,30,09,41,12.40
2009,05,30,09,42,12.40
2009,05,30,09,43,12.40
2009,05,30,09,44,12.50
2009,05,30,09,45,12.60
2009,05,30,09,46,12.60
2009,05,30,09,47,12.70
2009,05,30,09,48,12.60
2009,05,30,09,49,12.60
2009,05,30,09,50,12.60
2009,05,30,09,51,12.60
2009,05,30,09,52,12.60
2009,05,30,09,53,12.60
2009,05,30,09,54,12.70
2009,05,30,09,55,12.80
2009,05,30,09,56,12.80
2009,05,30,09,57,12.90
2009,05,30,09,58,13.00
2009,05,30,09,59,13.10
2009,05,30,10,00,13.10
2009,05,30,10,01,13.20
2009,05,30,10,02,13.20
2009,05,30,10,03,13.20
2009,05,30,10,04,13.30
2009,05,30,10,05,13.30
2009,05,30,10,06,13.40
2009,05,30,10,07,13.50
2009,05,30,10,08,13.50
2009,05,30,10,09,13.50
2009,05,30,10,10,13.50
2009,05,30,10,11,13.50
2009,05,30,10,12,13.40
2009,05,30,10,13,13.40
2009,05,30,10,14,13.30
2009,05,30,10,15,13.30
2009,05,30,10,16,13.20
2009,05,30,10,17,13.10
2009,05,30,10,18,13.00
2009,05,30,10,19,13.00
2009,05,30,10,20,13.00
2009,05,30,10,21,13.00
2009,05,30,10,22,13.00
2009,05,30,10,23,13.00
2009,05,30,10,24,12.80
2009,05,30,10,25,12.70
2009,05,30,10,26,12.70
2009,05,30,10,27,12.70
2009,05,30,10,28,12.80
2009,05,30,10,29,12.90
2009,05,30,10,30,12.90
2009,05,30,10,31,12.90
2009,05,30,10,32,12.90
2009,05,30,10,33,12.80
2009,05,30,10,34,12.70
2009,05,30,10,35,12.70
2009,05,30,10,36,12.70
2009,05,30,10,37,12.70
2009,05,30,10,38,12.70
2009,05,30,10,39,12.70
2009,05,30,10,40,12.70
2009,05,30,10,41,12.60
2009,05,30,10,42,12.60
2009,05,30,10,43,12.60
2009,05,30,10,44,12.60
2009,05,30,10,45,12.70
2009,05,30,10,46,12.70
2009,05,30,10,47,12.80
2009,05,30,10,48,12.80
2009,05,30,10,49,12.90
2009,05,30,10,50,12.90
2009,05,30,10,51,12.80
2009,05,30,10,52,12.80
2009,05,30,10,53,12.90
2009,05,30,10,54,12.90
2009,05,30,10,55,12.90
2009,05,30,10,56,12.80
2009,05,30,10,57,13.00
2009,05,30,10,58,13.00
2009,05,30,10,59,13.00
2009,05,30,11,00,13.10
2009,05,30,11,01,13.10
2009,05,30,11,02,13.00
2009,05,30,11,03,13.10
2009,05,30,11,04,13.10
2009,05,30,11,05,13.20
2009,05,30,11,06,13.20
2009,05,30,11,07,13.20
2009,05,30,11,08,13.20
2009,05,30,11,09,13.30
2009,05,30,11,10,13.40
2009,05,30,11,11,13.60
2009,05,30,11,12,13.80
2009,05,30,11,13,13.90
2009,05,30,11,14,14.00
2009,05,30,11,15,14.10
2009,05,30,11,16,14.00
2009,05,30,11,17,14.00
2009,05,30,11,18,13.90
2009,05,30,11,19,13.90
2009,05,30,11,20,14.00
2009,05,30,11,21,14.00
2009,05,30,11,22,14.00
2009,05,30,11,23,14.00
2009,05,30,11,24,14.10
2009,05,30,11,25,14.10
2009,05,30,11,26,14.10
2009,05,30,11,27,14.10
2009,05,30,11,28,14.10
2009,05,30,11,29,14.00
2009,05,30,11,30,13.90
2009,05,30,11,31,13.90
2009,05,30,11,32,13.80
2009,05,30,11,33,13.70
2009,05,30,11,34,13.70
2009,05,30,11,35,13.70
2009,05,30,11,36,13.80
2009,05,30,11,37,13.80
2009,05,30,11,38,13.80
2009,05,30,11,39,13.80
2009,05,30,11,40,13.90
2009,05,30,11,41,13.90
2009,05,30,11,42,13.90
2009,05,30,11,43,14.00
2009,05,30,11,44,14.00
2009,05,30,11,45,14.20
2009,05,30,11,46,14.30
2009,05,30,11,47,14.40
2009,05,30,11,48,14.50
2009,05,30,11,49,14.40
2009,05,30,11,50,14.30
2009,05,30,11,51,14.20
2009,05,30,11,52,14.40
2009,05,30,11,53,14.50
2009,05,30,11,54,14.50
2009,05,30,11,55,14.50
2009,05,30,11,56,14.50
2009,05,30,11,57,14.40
2009,05,30,11,58,14.30
2009,05,30,11,59,14.40
2009,05,30,12,00,14.40
2009,05,30,12,01,14.40
2009,05,30,12,02,14.40
2009,05,30,12,03,14.40
2009,05,30,12,04,14.40
2009,05,30,12,05,14.30
2009,05,30,12,06,14.30
2009,05,30,12,07,14.30
2009,05,30,12,08,14.30
2009,05,30,12,09,14.40
2009,05,30,12,10,14.40
2009,05,30,12,11,14.40
2009,05,30,12,12,14.50
2009,05,30,12,13,14.50
2009,05,30,12,14,14.50
2009,05,30,12,15,14.40
2009,05,30,12,16,14.50
2009,05,30,12,17,14.50
2009,05,30,12,18,14.50
2009,05,30,12,19,14.60
2009,05,30,12,20,14.60
2009,05,30,12,21,14.70
2009,05,30,12,22,14.80
2009,05,30,12,23,14.80
2009,05,30,12,24,14.80
2009,05,30,12,25,14.90
2009,05,30,12,26,15.10
2009,05,30,12,27,15.20
2009,05,30,12,28,15.30
2009,05,30,12,29,15.30
2009,05,30,12,30,15.30
2009,05,30,12,31,15.30
2009,05,30,12,32,15.30
2009,05,30,12,33,15.10
2009,05,30,12,34,15.00
2009,05,30,12,35,14.90
2009,05,30,12,36,14.80
2009,05,30,12,37,14.80
2009,05,30,12,38,14.70
2009,05,30,12,39,14.70
2009,05,30,12,40,14.60
2009,05,30,12,41,14.60
2009,05,30,12,42,14.50
2009,05,30,12,43,14.50
2009,05,30,12,44,14.50
2009,05,30,12,45,14.50
2009,05,30,12,46,14.50
2009,05,30,12,47,14.50
2009,05,30,12,48,14.60
2009,05,30,12,49,14.60
2009,05,30,12,50,14.60
2009,05,30,12,51,14.70
2009,05,30,12,52,14.70
2009,05,30,12,53,14.70
2009,05,30,12,54,14.70
2009,05,30,12,55,14.70
2009,05,30,12,56,14.70
2009,05,30,12,57,14.70
2009,05,30,12,58,14.80
2009,05,30,12,59,14.80
2009,05,30,13,00,14.70
2009,05,30,13,01,14.70
2009,05,30,13,02,14.80
2009,05,30,13,03,14.80
2009,05,30,13,04,14.80
2009,05,30,13,05,14.80
2009,05,30,13,06,14.80
2009,05,30,13,07,14.90
2009,05,30,13,08,14.90
2009,05,30,13,09,15.00
2009,05,30,13,10,15.10
2009,05,30,13,11,15.20
2009,05,30,13,12,15.20
2009,05,30,13,13,15.40
2009,05,30,13,14,15.50
2009,05,30,13,15,15.50
2009,05,30,13,16,15.50
2009,05,30,13,17,15.50
2009,05,30,13,18,15.40
2009,05,30,13,19,15.50
2009,05,30,13,20,15.50
2009,05,30,13,21,15.60
2009,05,30,13,22,15.60
2009,05,30,13,23,15.70
2009,05,30,13,24,15.80
2009,05,30,13,25,15.80
2009,05,30,13,26,15.70
2009,05,30,13,27,15.60
2009,05,30,13,28,15.70
2009,05,30,13,29,15.70
2009,05,30,13,30,15.80
2009,05,30,13,31,15.70
2009,05,30,13,32,15.60
2009,05,30,13,33,15.70
2009,05,30,13,34,15.60
2009,05,30,13,35,15.50
2009,05,30,13,36,15.40
2009,05,30,13,37,15.40
2009,05,30,13,38,15.30
2009,05,30,13,39,15.20
2009,05,30,13,40,15.10
2009,05,30,13,41,15.10
2009,05,30,13,42,15.10
2009,05,30,13,43,15.10
2009,05,30,13,44,15.10
2009,05,30,13,45,15.10
2009,05,30,13,46,15.00
2009,05,30,13,47,15.00
2009,05,30,13,48,15.00
2009,05,30,13,49,15.00
2009,05,30,13,50,15.00
2009,05,30,13,51,15.00
2009,05,30,13,52,15.10
2009,05,30,13,53,15.30
2009,05,30,13,54,15.20
2009,05,30,13,55,15.00
2009,05,30,13,56,15.00
2009,05,30,13,57,15.10
2009,05,30,13,58,15.00
2009,05,30,13,59,15.00
2009,05,30,14,00,14.90
2009,05,30,14,01,14.80
2009,05,30,14,02,14.80
2009,05,30,14,03,14.80
2009,05,30,14,04,14.70
2009,05,30,14,05,14.70
2009,05,30,14,06,14.70
2009,05,30,14,07,14.60
2009,05,30,14,08,14.50
2009,05,30,14,09,14.40
2009,05,30,14,10,14.40
2009,05,30,14,11,14.40
2009,05,30,14,12,14.50
2009,05,30,14,13,14.60
2009,05,30,14,14,14.70
2009,05,30,14,15,14.80
2009,05,30,14,16,14.80
2009,05,30,14,17,14.80
2009,05,30,14,18,14.80
2009,05,30,14,19,14.80
2009,05,30,14,20,14.80
2009,05,30,14,21,14.80
2009,05,30,14,22,14.80
2009,05,30,14,23,14.80
2009,05,30,14,24,14.80
2009,05,30,14,25,14.80
2009,05,30,14,26,14.80
2009,05,30,14,27,14.90
2009,05,30,14,28,15.00
2009,05,30,14,29,15.00
2009,05,30,14,30,15.00
2009,05,30,14,31,15.00
2009,05,30,14,32,14.90
2009,05,30,14,33,14.90
2009,05,30,14,34,14.90
2009,05,30,14,35,15.00
2009,05,30,14,36,15.00
2009,05,30,14,37,15.10
2009,05,30,14,38,15.10
2009,05,30,14,39,15.00
2009,05,30,14,40,15.10
2009,05,30,14,41,15.20
2009,05,30,14,42,15.30
2009,05,30,14,43,15.30
2009,05,30,14,44,15.30
2009,05,30,14,45,15.40
2009,05,30,14,46,15.30
2009,05,30,14,47,15.40
2009,05,30,14,48,15.50
2009,05,30,14,49,15.60
2009,05,30,14,50,15.70
2009,05,30,14,51,15.80
2009,05,30,14,52,15.70
2009,05,30,14,53,15.70
2009,05,30,14,54,15.80
2009,05,30,14,55,15.80
2009,05,30,14,56,15.80
2009,05,30,14,57,15.90
2009,05,30,14,58,16.00
2009,05,30,14,59,16.10
2009,05,30,15,00,16.20
2009,05,30,15,01,16.30
2009,05,30,15,02,16.20
2009,05,30,15,03,16.10
2009,05,30,15,04,16.10
2009,05,30,15,05,16.00
2009,05,30,15,06,16.00
2009,05,30,15,07,16.10
2009,05,30,15,08,16.10
2009,05,30,15,09,16.00
2009,05,30,15,10,15.90
2009,05,30,15,11,15.90
2009,05,30,15,12,15.90
2009,05,30,15,13,16.10
2009,05,30,15,14,16.20
2009,05,30,15,15,16.30
2009,05,30,15,16,16.40
2009,05,30,15,17,16.40
2009,05,30,15,18,16.40
2009,05,30,15,19,16.40
2009,05,30,15,20,16.40
2009,05,30,15,21,16.30
2009,05,30,15,22,16.30
2009,05,30,15,23,16.30
2009,05,30,15,24,16.30
2009,05,30,15,25,16.30
2009,05,30,15,26,16.30
2009,05,30,15,27,16.30
2009,05,30,15,28,16.40
2009,05,30,15,29,16.40
2009,05,30,15,30,16.40
2009,05,30,15,31,16.40
2009,05,30,15,32,16.40
2009,05,30,15,33,16.40
2009,05,30,15,34,16.40
2009,05,30,15,35,16.40
2009,05,30,15,36,16.40
2009,05,30,15,37,16.40
2009,05,30,15,38,16.40
2009,05,30,15,39,16.40
2009,05,30,15,40,16.30
2009,05,30,15,41,16.30
2009,05,30,15,42,16.30
2009,05,30,15,43,16.30
2009,05,30,15,44,16.30
2009,05,30,15,45,16.30
2009,05,30,15,46,16.30
2009,05,30,15,47,16.30
2009,05,30,15,48,16.40
2009,05,30,15,49,16.50
2009,05,30,15,50,16.60
2009,05,30,15,51,16.60
2009,05,30,15,52,16.70
2009,05,30,15,53,16.70
2009,05,30,15,54,16.90
2009,05,30,15,55,17.00
2009,05,30,15,56,17.10
2009,05,30,15,57,17.20
2009,05,30,15,58,17.30
2009,05,30,15,59,17.30
2009,05,30,16,00,17.30
2009,05,30,16,01,17.20
2009,05,30,16,02,17.10
2009,05,30,16,03,17.10
2009,05,30,16,04,17.00
2009,05,30,16,05,17.00
2009,05,30,16,06,17.00
2009,05,30,16,07,17.00
2009,05,30,16,08,16.90
2009,05,30,16,09,16.80
2009,05,30,16,10,16.80
2009,05,30,16,11,16.90
2009,05,30,16,12,16.90
2009,05,30,16,13,16.90
2009,05,30,16,14,16.90
2009,05,30,16,15,16.90
2009,05,30,16,16,16.90
2009,05,30,16,17,16.90
2009,05,30,16,18,16.90
2009,05,30,16,19,16.80
2009,05,30,16,20,16.80
2009,05,30,16,21,16.80
2009,05,30,16,22,16.70
2009,05,30,16,23,16.70
2009,05,30,16,24,16.70
2009,05,30,16,25,16.70
2009,05,30,16,26,16.70
2009,05,30,16,27,16.60
2009,05,30,16,28,16.60
2009,05,30,16,29,16.60
2009,05,30,16,30,16.50
2009,05,30,16,31,16.40
2009,05,30,16,32,16.40
2009,05,30,16,33,16.40
2009,05,30,16,34,16.40
2009,05,30,16,35,16.40
2009,05,30,16,36,16.40
2009,05,30,16,37,16.30
2009,05,30,16,38,16.30
2009,05,30,16,39,16.40
2009,05,30,16,40,16.40
2009,05,30,16,41,16.40
2009,05,30,16,42,16.40
2009,05,30,16,43,16.50
2009,05,30,16,44,16.60
2009,05,30,16,45,16.70
2009,05,30,16,46,16.70
2009,05,30,16,47,16.70
2009,05,30,16,48,16.70
2009,05,30,16,49,16.80
2009,05,30,16,50,16.90
2009,05,30,16,51,16.90
2009,05,30,16,52,17.00
2009,05,30,16,53,17.00
2009,05,30,16,54,17.10
2009,05,30,16,55,17.20
2009,05,30,16,56,17.20
2009,05,30,16,57,17.20
2009,05,30,16,58,17.30
2009,05,30,16,59,17.30
2009,05,30,17,00,17.30
2009,05,30,17,01,17.30
2009,05,30,17,02,17.30
2009,05,30,17,03,17.30
2009,05,30,17,04,17.20
2009,05,30,17,05,17.20
2009,05,30,17,06,17.20
2009,05,30,17,07,17.20
2009,05,30,17,08,17.20
2009,05,30,17,09,17.20
2009,05,30,17,10,17.20
2009,05,30,17,11,17.20
2009,05,30,17,12,17.30
2009,05,30,17,13,17.20
2009,05,30,17,14,17.20
2009,05,30,17,15,17.20
2009,05,30,17,16,17.30
2009,05,30,17,17,17.30
2009,05,30,17,18,17.40
2009,05,30,17,19,17.40
2009,05,30,17,20,17.40
2009,05,30,17,21,17.50
2009,05,30,17,22,17.50
2009,05,30,17,23,17.50